BAW880 EGLL-KJFK

Flight info

Callsign BAW880
Flight time N/A
Altitude 36000
Route ULTIB T420 TNT UL28 PENIL M144 BAGSO DCT RINUS DCT MALOT/M085F380 NATE RIKAL/N0485F380 N572A TOPPS DCT ENE PARCH4
Aircraft A35K/H-SDE2E3GHIJ3J4J5LM1ORWXY/LB1D1

Departure

Time N/A
Airport London Heathrow Airport (EGLL)

Arrival

Time 2026-05-05 17:22
Airport John F. Kennedy International Airport (KJFK)
Time Latitude Longitude Altitude Speed Heading
2026-05-05 17:14 40.71591 -73.42425 5771 ft 259 kts 291°
2026-05-05 17:15 40.72383 -73.44553 5435 ft 258 kts 290°
2026-05-05 17:15 40.73152 -73.46687 5098 ft 256 kts 290°
2026-05-05 17:15 40.73910 -73.48807 4776 ft 255 kts 290°
2026-05-05 17:15 40.74671 -73.50918 4435 ft 255 kts 290°
2026-05-05 17:16 40.75438 -73.53015 4096 ft 253 kts 290°
2026-05-05 17:16 40.76183 -73.55113 3770 ft 252 kts 290°
2026-05-05 17:16 40.76918 -73.57193 3462 ft 245 kts 291°
2026-05-05 17:16 40.77608 -73.59110 3388 ft 221 kts 291°
2026-05-05 17:17 40.78160 -73.60923 3298 ft 204 kts 278°
2026-05-05 17:17 40.78295 -73.62697 3229 ft 187 kts 268°
2026-05-05 17:17 40.78311 -73.64375 3150 ft 177 kts 266°
2026-05-05 17:17 40.77992 -73.65828 3118 ft 160 kts 243°
2026-05-05 17:18 40.77405 -73.67070 2946 ft 160 kts 238°
2026-05-05 17:18 40.76774 -73.68290 2610 ft 161 kts 236°
2026-05-05 17:18 40.76138 -73.69458 2305 ft 153 kts 228°
2026-05-05 17:18 40.75274 -73.70253 2041 ft 148 kts 211°
2026-05-05 17:19 40.74370 -73.70862 2003 ft 146 kts 208°
2026-05-05 17:19 40.73403 -73.71268 2005 ft 153 kts 187°
2026-05-05 17:19 40.72352 -73.71177 1971 ft 144 kts 194°
2026-05-05 17:19 40.71507 -73.71701 2006 ft 130 kts 215°
2026-05-05 17:20 40.70737 -73.72330 1996 ft 132 kts 213°
2026-05-05 17:20 40.69916 -73.72880 1990 ft 132 kts 210°
2026-05-05 17:20 40.69014 -73.73419 1582 ft 151 kts 205°
2026-05-05 17:20 40.68021 -73.74026 1114 ft 162 kts 207°
2026-05-05 17:21 40.67049 -73.74745 721 ft 159 kts 210°
2026-05-05 17:21 40.66163 -73.75556 485 ft 148 kts 214°
2026-05-05 17:21 40.65289 -73.76184 237 ft 137 kts 200°
2026-05-05 17:22 40.63753 -73.77347 33 ft 118 kts 206°
2026-05-05 17:22 40.63145 -73.77821 34 ft 71 kts 211°
2026-05-05 17:22 40.62906 -73.78008 32 ft 29 kts 211°
2026-05-05 17:22 40.62734 -73.78144 31 ft 28 kts 211°
2026-05-05 17:23 40.62652 -73.78223 34 ft 4 kts 234°
2026-05-05 17:23 40.62645 -73.78311 34 ft 13 kts 293°
2026-05-05 17:23 40.62732 -73.78332 31 ft 17 kts 29°
2026-05-05 17:23 40.62848 -73.78243 28 ft 22 kts 31°
2026-05-05 17:24 40.62985 -73.78137 30 ft 24 kts 31°
2026-05-05 17:24 40.63136 -73.78026 32 ft 25 kts 12°
2026-05-05 17:24 40.63305 -73.77982 31 ft 23 kts 21°
2026-05-05 17:24 40.63378 -73.77950 30 ft 4 kts 341°
2026-05-05 17:25 40.63402 -73.78010 29 ft 17 kts 295°
2026-05-05 17:25 40.63446 -73.78122 31 ft 21 kts 297°
2026-05-05 17:25 40.63555 -73.78361 33 ft 19 kts 300°
2026-05-05 17:25 40.63607 -73.78510 35 ft 16 kts 264°
2026-05-05 17:26 40.63555 -73.78550 34 ft 9 kts 150°
2026-05-05 17:26 40.63513 -73.78473 33 ft 13 kts 120°
2026-05-05 17:26 40.63459 -73.78353 31 ft 17 kts 121°
2026-05-05 17:26 40.63391 -73.78206 30 ft 20 kts 121°
2026-05-05 17:27 40.63330 -73.78026 30 ft 23 kts 101°
2026-05-05 17:27 40.63374 -73.77827 32 ft 24 kts 50°
2026-05-05 17:27 40.63523 -73.77691 27 ft 29 kts 32°
2026-05-05 17:27 40.63710 -73.77546 29 ft 33 kts 30°
2026-05-05 17:28 40.63917 -73.77386 27 ft 35 kts 31°
2026-05-05 17:28 40.63978 -73.77338 27 ft 5 kts 27°
2026-05-05 17:28 40.64053 -73.77402 28 ft 18 kts 308°
2026-05-05 17:28 40.64149 -73.77526 29 ft 21 kts 326°
2026-05-05 17:29 40.64283 -73.77628 29 ft 24 kts 332°
2026-05-05 17:29 40.64373 -73.77699 29 ft 0 kts 312°
2026-05-05 17:29 40.64377 -73.77707 29 ft 2 kts 302°
2026-05-05 17:29 40.64375 -73.77741 29 ft 8 kts 257°
2026-05-05 17:30 40.64360 -73.77808 29 ft 6 kts 252°
2026-05-05 17:30 40.64357 -73.77817 29 ft 1 kts 252°
2026-05-05 17:30 40.64358 -73.77815 29 ft 0 kts 252°